#timestamp,LO_Frequency,Hit,Temp,Hum 
1487941215.8,286047219.3,N,0.0,0.0
1487941235.6,286047220.7,N,0.0,0.0
1487941255.4,286047224.7,N,0.0,0.0
1487941275.3,286047226.5,N,0.0,0.0
1487941295.1,286047226.3,Y,0.0,0.0
1487941296.0,286047226.3,Y,0.0,0.0
1487941315.8,286046826.1,N,0.0,0.0
1487941335.9,286046827.8,N,0.0,0.0
1487941355.7,286046828.4,N,0.0,0.0
1487941375.8,286046826.5,N,0.0,0.0
1487941395.7,286046822.5,N,0.0,0.0
1487941415.5,286046822.8,N,0.0,0.0
1487941435.3,286046823.6,N,0.0,0.0
1487941455.2,286046823.5,N,0.0,0.0
1487941475.0,286046821.3,N,0.0,0.0
1487941475.9,286046821.3,N,0.0,0.0
1487941495.7,286046822.7,N,0.0,0.0
1487941515.6,286046824.5,N,0.0,0.0
1487941535.4,286046825.7,N,0.0,0.0
1487941555.2,286046828.1,N,0.0,0.0
1487941575.1,286046827.1,N,0.0,0.0
1487941576.0,286046827.1,N,0.0,0.0
1487941595.8,286046831.6,N,0.0,0.0
1487941615.6,286046829.4,N,0.0,0.0
1487941635.5,286046830.9,N,0.0,0.0
1487941655.3,286046830.1,N,0.0,0.0
1487941675.1,286046832.0,N,0.0,0.0
1487941695.9,286046835.1,N,0.0,0.0
1487941715.7,286046836.8,N,0.0,0.0
1487941735.5,286046839.2,N,0.0,0.0
1487941755.4,286046838.4,N,0.0,0.0
1487941775.2,286046839.4,N,0.0,0.0
1487941795.0,286046839.2,N,0.0,0.0
1487941795.9,286046839.2,N,0.0,0.0
1487941815.8,286046839.1,N,0.0,0.0
1487941835.6,286046841.4,N,0.0,0.0
1487941855.4,286046841.4,N,0.0,0.0
1487941875.3,286046842.9,N,0.0,0.0
1487941895.1,286046844.9,N,0.0,0.0
1487941915.8,286046844.7,N,0.0,0.0
1487941935.0,286046848.6,N,0.0,0.0
1487941935.9,286046848.6,N,0.0,0.0
1487941955.8,286046851.7,N,0.0,0.0
1487941975.6,286046851.5,N,0.0,0.0
1487941995.4,286046853.1,N,0.0,0.0
1487942015.3,286046849.9,N,0.0,0.0
1487942035.1,286046849.4,N,0.0,0.0
1487942055.8,286046849.4,N,0.0,0.0
1487942075.7,286046855.3,N,0.0,0.0
1487942095.5,286046852.8,N,0.0,0.0
1487942115.3,286046855.6,N,0.0,0.0
1487942135.2,286046853.9,N,0.0,0.0
1487942155.9,286046853.4,N,0.0,0.0
1487942175.7,286046853.1,N,0.0,0.0
1487942195.6,286046853.7,N,0.0,0.0
1487942215.4,286046853.4,N,0.0,0.0
1487942235.2,286046855.1,N,0.0,0.0
1487942255.1,286046852.7,N,0.0,0.0
1487942256.0,286046852.7,N,0.0,0.0
1487942275.8,286046858.0,N,0.0,0.0
1487942295.6,286046859.2,N,0.0,0.0
1487942315.5,286046858.9,N,0.0,0.0
1487942335.3,286046864.6,N,0.0,0.0
1487942355.1,286046863.9,N,0.0,0.0
1487942375.9,286046865.2,N,0.0,0.0
1487942395.7,286046864.2,N,0.0,0.0
1487942415.5,286046866.6,N,0.0,0.0
1487942435.3,286046866.8,N,0.0,0.0
1487942455.2,286046864.9,N,0.0,0.0
1487942475.0,286046865.1,N,0.0,0.0
1487942475.9,286046865.1,N,0.0,0.0
1487942495.7,286046865.2,N,0.0,0.0
1487942515.6,286046864.5,N,0.0,0.0
1487942535.4,286046864.3,N,0.0,0.0
1487942555.2,286046862.2,N,0.0,0.0
1487942575.1,286046864.9,N,0.0,0.0
1487942576.0,286046864.9,N,0.0,0.0
1487942595.8,286046865.9,N,0.0,0.0
1487942615.8,286046865.8,N,0.0,0.0
1487942635.6,286046865.9,N,0.0,0.0
1487942655.5,286046868.3,N,0.0,0.0
1487942675.3,286046871.0,N,0.0,0.0
1487942695.1,286046872.9,N,0.0,0.0
1487942715.9,286046874.7,N,0.0,0.0
1487942735.7,286046872.7,N,0.0,0.0
1487942755.5,286046871.7,N,0.0,0.0
1487942775.4,286046873.5,N,0.0,0.0
1487942795.2,286046877.2,N,0.0,0.0
1487942815.0,286046877.1,N,0.0,0.0
1487942815.9,286046877.1,N,0.0,0.0
1487942835.8,286046877.2,N,0.0,0.0
1487942855.6,286046877.4,N,0.0,0.0
1487942875.4,286046876.7,N,0.0,0.0
1487942895.3,286046879.6,N,0.0,0.0
1487942915.1,286046878.8,N,0.0,0.0
1487942916.0,286046878.8,N,0.0,0.0
1487942935.8,286046880.7,N,0.0,0.0
1487942955.7,286046882.1,N,0.0,0.0
1487942975.5,286046882.1,N,0.0,0.0
1487942995.3,286046882.5,N,0.0,0.0
1487943015.1,286046881.5,N,0.0,0.0
1487943035.9,286046880.0,N,0.0,0.0
1487943055.7,286046882.2,N,0.0,0.0
1487943075.5,286046885.5,N,0.0,0.0
1487943095.4,286046884.9,N,0.0,0.0
1487943115.2,286046886.0,N,0.0,0.0
1487943135.0,286046883.1,N,0.0,0.0
1487943135.9,286046883.1,N,0.0,0.0
1487943155.8,286046884.7,N,0.0,0.0
1487943175.6,286046882.1,N,0.0,0.0
1487943195.4,286046883.1,N,0.0,0.0
1487943215.3,286046883.6,N,0.0,0.0
1487943235.1,286046883.2,N,0.0,0.0
1487943255.8,286046883.4,N,0.0,0.0
1487943275.7,286046886.0,N,0.0,0.0
1487943295.5,286046885.6,N,0.0,0.0
1487943315.3,286046887.1,N,0.0,0.0
1487943335.2,286046886.7,N,0.0,0.0
1487943355.9,286046889.8,N,0.0,0.0
1487943375.7,286046895.6,N,0.0,0.0
1487943395.6,286046893.5,N,0.0,0.0
1487943415.4,286046891.7,N,0.0,0.0
1487943435.2,286046891.0,N,0.0,0.0
1487943455.1,286046892.7,N,0.0,0.0
1487943456.0,286046892.7,N,0.0,0.0
1487943475.8,286046891.5,N,0.0,0.0
1487943495.6,286046894.4,N,0.0,0.0
1487943515.5,286046893.0,N,0.0,0.0
1487943535.3,286046894.2,N,0.0,0.0
1487943555.1,286046894.4,N,0.0,0.0
1487943575.8,286046896.6,N,0.0,0.0
1487943595.7,286046898.5,N,0.0,0.0
1487943615.5,286046897.4,N,0.0,0.0
1487943635.3,286046899.5,N,0.0,0.0
1487943655.2,286046899.4,N,0.0,0.0
1487943675.0,286046901.0,N,0.0,0.0
1487943675.9,286046901.0,N,0.0,0.0
1487943695.7,286046904.9,N,0.0,0.0
1487943715.6,286046905.8,N,0.0,0.0
1487943735.4,286046909.8,N,0.0,0.0
1487943755.2,286046911.1,N,0.0,0.0
1487943775.1,286046908.8,N,0.0,0.0
1487943776.0,286046908.8,N,0.0,0.0
1487943795.8,286046910.4,N,0.0,0.0
1487943815.6,286046910.9,N,0.0,0.0
1487943835.5,286046907.0,N,0.0,0.0
1487943855.3,286046907.9,N,0.0,0.0
1487943875.1,286046908.2,N,0.0,0.0
1487943895.9,286046911.1,N,0.0,0.0
1487943915.7,286046910.6,N,0.0,0.0
1487943935.5,286046912.6,N,0.0,0.0
1487943955.4,286046915.9,N,0.0,0.0
1487943975.2,286046916.1,N,0.0,0.0
1487943995.0,286046917.3,N,0.0,0.0
1487943995.9,286046917.3,N,0.0,0.0
1487944015.8,286046916.9,N,0.0,0.0
1487944035.6,286046916.7,N,0.0,0.0
1487944055.4,286046919.1,N,0.0,0.0
1487944075.3,286046917.2,N,0.0,0.0
1487944095.1,286046920.8,N,0.0,0.0
1487944096.0,286046920.8,N,0.0,0.0
1487944115.8,286046920.0,N,0.0,0.0
1487944135.7,286046920.8,N,0.0,0.0
1487944155.5,286046922.8,N,0.0,0.0
1487944175.3,286046922.6,N,0.0,0.0
1487944195.2,286046921.3,N,0.0,0.0
1487944215.9,286046921.5,N,0.0,0.0
1487944235.7,286046923.6,N,0.0,0.0
1487944255.5,286046925.9,N,0.0,0.0
1487944275.5,286046924.4,N,0.0,0.0
1487944295.4,286046921.3,N,0.0,0.0
1487944315.2,286046923.1,N,0.0,0.0
1487944335.0,286046927.5,N,0.0,0.0
1487944335.9,286046927.5,N,0.0,0.0
1487944355.8,286046928.8,N,0.0,0.0
1487944375.6,286046928.6,N,0.0,0.0
1487944395.4,286046926.4,N,0.0,0.0
1487944415.3,286046928.6,N,0.0,0.0
1487944435.2,286046927.3,N,0.0,0.0
1487944455.9,286046926.4,N,0.0,0.0
1487944475.7,286046929.8,N,0.0,0.0
1487944495.6,286046928.0,N,0.0,0.0
1487944515.4,286046929.2,N,0.0,0.0
1487944535.2,286046929.2,N,0.0,0.0
1487944555.1,286046926.7,N,0.0,0.0
1487944556.0,286046926.7,N,0.0,0.0
1487944575.8,286046928.5,N,0.0,0.0
1487944595.6,286046929.4,N,0.0,0.0
1487944615.5,286046929.0,N,0.0,0.0
1487944635.3,286046929.0,N,0.0,0.0
1487944655.4,286046928.3,N,0.0,0.0
1487944675.2,286046926.6,N,0.0,0.0
1487944695.0,286046927.9,N,0.0,0.0
1487944695.9,286046927.9,N,0.0,0.0
1487944715.8,286046928.0,N,0.0,0.0
1487944735.6,286046927.8,N,0.0,0.0
1487944755.4,286046930.6,N,0.0,0.0
1487944775.3,286046930.3,N,0.0,0.0
1487944795.1,286046929.4,N,0.0,0.0
